Weather History for KF46 - January, 2014

Change the Weather History Date:

Friday, January 31, 2014

  Actual Average (KDFW) Record (KDFW)
Temperature  
Mean Temperature 61 °F 47 °F  
Max Temperature 73 °F 58 °F 93 °F (1911)
Min Temperature 49 °F 36 °F -2 °F (1949)
Degree Days  
Heating Degree Days 4 18  
Month to date heating degree days 594  
Since 1 July heating degree days 1505  
Cooling Degree Days 0 0  
Month to date cooling degree days 2  
Year to date cooling degree days 2  
Growing Degree Days 11 (Base 50)    
Moisture  
Dew Point 52 °F    
Average Humidity 74    
Maximum Humidity 91    
Minimum Humidity 46    
Precipitation  
Precipitation 0.00 in 0.08 in 3.07 in (2002)
Month to date precipitation 2.13  
Year to date precipitation 2.13  
Snow  
Snow 0.00 in 0.00 in 1.20 in (1985)
Month to date snowfall 0.3  
Since 1 July snowfall 0.6  
Snow Depth -    
Sea Level Pressure  
Sea Level Pressure 29.81 in    
Wind  
Wind Speed 14 mph (SSE)    
Max Wind Speed 22 mph    
Max Gust Speed 29 mph    
Visibility 10 miles    
Events      
T = Trace of Precipitation, MM = Missing Value Source: NWS Daily Summary

Daily Weather History Graph

Daily Weather History Graph

Search for Another Location

Airport or City:

Trip Planner

Search our weather history database for the weather conditions in past years. The results will help you decide how hot, cold, wet, or windy it might be!

Date:

Astronomy

Jan. 31, 2014 Rise Set
Actual Time 7:21 AM CST 5:57 PM CST
Civil Twilight 6:55 AM CST 6:23 PM CST
Nautical Twilight 6:25 AM CST 6:52 PM CST
Astronomical Twilight 5:56 AM CST 7:21 PM CST
Moon 7:37 AM CST (1/31) 7:15 PM CST (1/31)
Length of Visible Light 11h 27m
Length of Day
10h 35m
New Moon, 1% of the Moon is Illuminated
Jan 31
New Moon
Feb 6
First Quarter
Feb 14
Full
Feb 22
Last Quarter
Mar 1
New

Hourly Weather History & Observations

Time (CST) Temp. Dew Point Humidity Pressure Visibility Wind Dir Wind Speed Gust Speed Precip Events Conditions
12:15 AM 49.1 °F 45.5 °F 87% 29.85 in 10.0 mi SE 8.1 mph - N/A   Overcast
12:35 AM 50.0 °F 46.6 °F 88% 29.85 in 10.0 mi SSE 9.2 mph - N/A   Overcast
12:55 AM 52.0 °F 48.4 °F 88% 29.84 in 10.0 mi SSE 12.7 mph 19.6 mph N/A   Overcast
1:15 AM 52.9 °F 49.1 °F 87% 29.84 in 10.0 mi SSE 11.5 mph 20.7 mph N/A   Overcast
1:35 AM 53.2 °F 49.3 °F 86% 29.83 in 10.0 mi SSE 16.1 mph 23.0 mph N/A   Overcast
1:55 AM 53.1 °F 49.8 °F 89% 29.83 in 10.0 mi SSE 18.4 mph 23.0 mph N/A   Overcast
2:15 AM 53.2 °F 50.0 °F 89% 29.82 in 10.0 mi SSE 15.0 mph 23.0 mph N/A   Overcast
2:35 AM 53.6 °F 50.4 °F 89% 29.82 in 10.0 mi SSE 15.0 mph 20.7 mph N/A   Overcast
2:55 AM 52.7 °F 49.5 °F 89% 29.83 in 10.0 mi SE 6.9 mph - N/A   Overcast
3:15 AM 52.0 °F 48.7 °F 89% 29.82 in 10.0 mi SE 10.4 mph - N/A   Overcast
3:35 AM 51.8 °F 48.6 °F 89% 29.82 in 10.0 mi SE 6.9 mph - N/A   Overcast
3:55 AM 51.8 °F 48.9 °F 90% 29.81 in 10.0 mi SE 10.4 mph - N/A   Overcast
4:15 AM 51.8 °F 48.9 °F 90% 29.80 in 10.0 mi SE 10.4 mph - N/A   Overcast
4:35 AM 51.8 °F 49.1 °F 90% 29.80 in 10.0 mi SE 10.4 mph - N/A   Overcast
4:55 AM 52.0 °F 49.3 °F 90% 29.80 in 10.0 mi SE 9.2 mph - N/A   Overcast
5:15 AM 52.2 °F 49.5 °F 91% 29.79 in 10.0 mi SE 9.2 mph - N/A   Overcast
5:35 AM 52.2 °F 49.6 °F 91% 29.80 in 10.0 mi SSE 9.2 mph - N/A   Overcast
5:55 AM 52.5 °F 50.0 °F 91% 29.82 in 10.0 mi SSE 6.9 mph - N/A   Overcast
6:15 AM 52.7 °F 50.2 °F 91% 29.82 in 10.0 mi SE 8.1 mph - N/A   Overcast
6:35 AM 52.9 °F 50.4 °F 91% 29.82 in 10.0 mi SSE 10.4 mph - N/A   Overcast
6:55 AM 54.7 °F 51.4 °F 89% 29.82 in 10.0 mi South 17.3 mph 24.2 mph N/A   Overcast
7:15 AM 55.8 °F 51.4 °F 85% 29.83 in 10.0 mi South 19.6 mph 24.2 mph N/A   Overcast
7:35 AM 55.8 °F 51.3 °F 85% 29.84 in 10.0 mi South 15.0 mph 24.2 mph N/A   Overcast
7:55 AM 55.8 °F 51.1 °F 84% 29.84 in 10.0 mi South 17.3 mph 20.7 mph N/A   Overcast
8:15 AM 56.3 °F 51.1 °F 83% 29.85 in 10.0 mi South 16.1 mph - N/A   Overcast
8:35 AM 56.5 °F 51.3 °F 83% 29.86 in 10.0 mi South 15.0 mph - N/A   Overcast
8:55 AM 56.8 °F 51.4 °F 82% 29.87 in 10.0 mi South 12.7 mph 19.6 mph N/A   Overcast
9:15 AM 57.4 °F 51.8 °F 82% 29.87 in 10.0 mi South 18.4 mph 23.0 mph N/A   Overcast
9:35 AM 58.1 °F 52.0 °F 80% 29.87 in 10.0 mi South 18.4 mph 21.9 mph N/A   Overcast
9:55 AM 59.0 °F 52.0 °F 78% 29.87 in 10.0 mi South 16.1 mph 24.2 mph N/A   Overcast
10:15 AM 60.1 °F 52.2 °F 75% 29.88 in 10.0 mi South 16.1 mph 24.2 mph N/A   Overcast
10:35 AM 60.4 °F 52.2 °F 74% 29.88 in 10.0 mi South 21.9 mph 28.8 mph N/A   Overcast
10:55 AM 61.7 °F 52.2 °F 71% 29.88 in 10.0 mi South 18.4 mph 25.3 mph N/A   Overcast
11:15 AM 62.4 °F 52.2 °F 69% 29.88 in 10.0 mi South 20.7 mph 27.6 mph N/A   Overcast
11:35 AM 63.9 °F 52.7 °F 67% 29.88 in 10.0 mi South 18.4 mph 24.2 mph N/A   Scattered Clouds
11:55 AM 66.2 °F 52.9 °F 62% 29.87 in 10.0 mi South 18.4 mph 23.0 mph N/A   Scattered Clouds
12:15 PM 67.3 °F 52.7 °F 59% 29.86 in 10.0 mi SSE 20.7 mph 26.5 mph N/A   Scattered Clouds
12:35 PM 68.2 °F 52.3 °F 57% 29.85 in 10.0 mi South 19.6 mph 25.3 mph N/A   Clear
12:55 PM 69.4 °F 52.5 °F 55% 29.84 in 10.0 mi SSE 18.4 mph 23.0 mph N/A   Clear
1:15 PM 70.3 °F 52.5 °F 53% 29.82 in 10.0 mi South 18.4 mph 24.2 mph N/A   Clear
1:35 PM 71.1 °F 52.3 °F 52% 29.81 in 10.0 mi South 17.3 mph 25.3 mph N/A   Clear
1:55 PM 71.6 °F 52.0 °F 50% 29.80 in 10.0 mi South 20.7 mph 26.5 mph N/A   Clear
2:15 PM 71.6 °F 51.8 °F 50% 29.79 in 10.0 mi SSE 20.7 mph 28.8 mph N/A   Clear
2:35 PM 72.7 °F 51.8 °F 48% 29.79 in 10.0 mi South 19.6 mph 27.6 mph N/A   Clear
2:55 PM 73.4 °F 51.8 °F 47% 29.78 in 10.0 mi SSE 20.7 mph 26.5 mph N/A   Clear
3:20 PM 73.8 °F 51.6 °F 46% 29.78 in 10.0 mi South 16.1 mph 27.6 mph N/A   Clear
3:35 PM 72.7 °F 51.8 °F 48% 29.78 in 10.0 mi South 17.3 mph 24.2 mph N/A   Clear
3:55 PM 73.2 °F 51.8 °F 47% 29.77 in 10.0 mi South 16.1 mph 23.0 mph N/A   Clear
4:15 PM 73.0 °F 51.8 °F 47% 29.77 in 10.0 mi South 18.4 mph 21.9 mph N/A   Clear
4:35 PM 72.5 °F 52.0 °F 48% 29.77 in 10.0 mi South 15.0 mph 23.0 mph N/A   Clear
4:55 PM 72.1 °F 52.2 °F 49% 29.77 in 10.0 mi South 13.8 mph 23.0 mph N/A   Clear
5:15 PM 72.0 °F 53.1 °F 51% 29.77 in 10.0 mi South 12.7 mph - N/A   Clear
5:35 PM 71.6 °F 53.8 °F 53% 29.76 in 10.0 mi SSE 13.8 mph 18.4 mph N/A   Clear
5:55 PM 70.7 °F 54.1 °F 56% 29.76 in 10.0 mi SSE 15.0 mph 18.4 mph N/A   Clear
6:15 PM 68.7 °F 55.2 °F 62% 29.77 in 10.0 mi SE 8.1 mph - N/A   Clear
6:35 PM 67.3 °F 55.9 °F 67% 29.77 in 10.0 mi SE 6.9 mph - N/A   Clear
6:55 PM 66.9 °F 56.3 °F 69% 29.77 in 10.0 mi SE 9.2 mph 17.3 mph N/A   Clear
7:15 PM 66.9 °F 55.9 °F 68% 29.78 in 10.0 mi SSE 13.8 mph 18.4 mph N/A   Clear
7:35 PM 66.4 °F 55.8 °F 69% 29.78 in 10.0 mi SSE 10.4 mph 19.6 mph N/A   Clear
7:55 PM 65.7 °F 55.8 °F 70% 29.78 in 10.0 mi SE 9.2 mph - N/A   Clear
8:15 PM 65.3 °F 56.3 °F 73% 29.78 in 10.0 mi SE 9.2 mph 16.1 mph N/A   Clear
8:35 PM 65.1 °F 56.7 °F 74% 29.78 in 10.0 mi SSE 15.0 mph 19.6 mph N/A   Clear
8:55 PM 64.6 °F 56.8 °F 76% 29.76 in 10.0 mi SSE 15.0 mph 20.7 mph N/A   Clear
9:15 PM 64.6 °F 56.8 °F 76% 29.76 in 10.0 mi SSE 16.1 mph 19.6 mph N/A   Clear
9:35 PM 64.8 °F 56.8 °F 75% 29.76 in 10.0 mi SSE 20.7 mph 25.3 mph N/A   Clear
9:55 PM 64.8 °F 57.2 °F 76% 29.75 in 10.0 mi SSE 21.9 mph 26.5 mph N/A   Clear
10:15 PM 64.0 °F 57.2 °F 78% 29.76 in 10.0 mi SSE 17.3 mph 24.2 mph N/A   Clear
10:35 PM 63.9 °F 57.6 °F 80% 29.76 in 10.0 mi SSE 18.4 mph 27.6 mph N/A   Clear
10:55 PM 63.5 °F 58.1 °F 83% 29.76 in 10.0 mi SSE 20.7 mph 26.5 mph N/A   Clear
11:15 PM 63.5 °F 58.5 °F 84% 29.77 in 10.0 mi SSE 18.4 mph 26.5 mph N/A   Mostly Cloudy
11:35 PM 63.7 °F 58.6 °F 84% 29.76 in 10.0 mi SSE 17.3 mph 24.2 mph N/A   Overcast
11:55 PM 63.9 °F 59.0 °F 84% 29.77 in 10.0 mi South 18.4 mph 27.6 mph N/A   Overcast